KTXEAGLE7 Weather Reports


Display with metric or nautical units.
time (UTC)temp
F
wind
direction
speed
MPH
gust
MPH
rain 1hr
in
rain 24hr
in
rain mn
in
humidity
%
barometer
mb
20260504044538 62 182 3.0 6.0 0.00 0.00 0.00 85 1019.3
20260504043031 63 182 3.0 5.0 0.00 0.00 0.00 84 1019.3
20260504041532 63 182 3.0 4.0 0.00 0.00 0.00 85 1019.2
20260504040029 63 182 2.0 4.0 0.00 0.00 0.00 85 1019.3
20260504034529 63 182 3.0 6.0 0.00 0.00 0.00 83 1019.3
20260504033028 64 184 4.0 6.0 0.00 0.00 0.00 82 1019.2
20260504031528 64 180 3.0 6.0 0.00 0.00 0.00 81 1019.2
20260504030037 65 192 5.0 7.0 0.00 0.00 0.00 79 1019.3
20260504024527 66 177 3.0 5.0 0.00 0.00 0.00 77 1018.9
20260504023028 66 188 5.0 9.0 0.00 0.00 0.00 75 1018.8
20260504021528 67 175 5.0 9.0 0.00 0.00 0.00 74 1018.7
20260504020028 67 165 6.0 13.0 0.00 0.00 0.00 72 1018.7
20260504014526 68 161 7.0 11.0 0.00 0.00 0.00 70 1018.7
20260504013025 69 181 7.0 12.0 0.00 0.00 0.00 70 1018.6
20260504011524 70 157 8.0 15.0 0.00 0.00 0.00 68 1018.4
20260504010023 71 198 4.0 7.0 0.00 0.00 0.00 72 1018.4
20260504004524 72 154 5.0 11.0 0.00 0.00 0.00 65 1018.4
20260504003022 74 157 7.0 13.0 0.00 0.00 0.00 62 1018.2
20260504001522 74 167 6.0 10.0 0.00 0.00 0.00 60 1018.4
20260504000021 75 159 8.0 14.0 0.00 0.00 0.00 58 1018.3
20260503234534 75 159 8.0 12.0 0.00 0.00 0.00 59 1018.3
20260503233019 76 142 7.0 11.0 0.00 0.00 0.00 51 1018.4
20260503231517 77 126 7.0 11.0 0.00 0.00 0.00 48 1018.7
20260503230016 77 134 7.0 11.0 0.00 0.00 0.00 45 1018.9
20260503224515 77 161 5.0 12.0 0.00 0.00 0.00 45 1019.1
20260503223012 77 146 5.0 11.0 0.00 0.00 0.00 45 1019.1
20260503221510 77 141 4.0 9.0 0.00 0.00 0.00 44 1019.4
20260503220024 77 133 5.0 10.0 0.00 0.00 0.00 44 1019.4
20260503214508 77 163 6.0 12.0 0.00 0.00 0.00 43 1019.6
20260503213009 76 154 6.0 12.0 0.00 0.00 0.00 48 1019.7
20260503211503 77 127 6.0 12.0 0.00 0.00 0.00 45 1020.1
20260503210001 77 169 7.0 13.0 0.00 0.00 0.00 44 1020.3
20260503204559 77 148 8.0 16.0 0.00 0.00 0.00 48 1020.6
20260503203103 76 137 6.0 13.0 0.00 0.00 0.00 41 1020.9
20260503201556 76 79 4.0 14.0 0.00 0.00 0.00 46 1020.8
20260503200057 76 150 8.0 15.0 0.00 0.00 0.00 43 1021.2
20260503194552 76 103 10.0 13.0 0.00 0.00 0.00 43 1021.4
20260503193054 76 104 10.0 15.0 0.00 0.00 0.00 43 1021.8
20260503191550 76 135 9.0 13.0 0.00 0.00 0.00 44 1021.9
20260503190048 76 158 8.0 14.0 0.00 0.00 0.00 46 1022.0
20260503184558 75 213 5.0 11.0 0.00 0.00 0.00 46 1022.3
20260503183056 75 162 5.0 9.0 0.00 0.00 0.00 52 1022.7
20260503181545 75 128 2.0 12.0 0.00 0.00 0.00 49 1022.9
20260503180044 75 85 6.0 9.0 0.00 0.00 0.00 50 1023.1
20260503174543 75 158 6.0 12.0 0.00 0.00 0.00 54 1023.3
20260503173042 74 155 4.0 12.0 0.00 0.00 0.00 54 1023.4
20260503171538 74 207 4.0 9.0 0.00 0.00 0.00 52 1023.6
20260503081549 61 346 0.0 0.0 0.00 0.00 0.00 79 1021.6
20260503071530 62 346 0.0 0.0 0.00 0.00 0.00 77 1022.0